TimeEST,TemperatureF,Dew PointF,Humidity,Sea Level PressureIn,VisibilityMPH,Wind Direction,Wind SpeedMPH,Gust SpeedMPH,PrecipitationIn,Events,Conditions,WindDirDegrees,DateUTC
12:53 AM,63.0,46.0,54,29.94,10.0,South,5.8,18.4,N/A,,Clear,190,2008-12-28 05:53:00
1:53 AM,63.0,45.0,52,29.92,10.0,South,6.9,19.6,N/A,,Clear,190,2008-12-28 06:53:00
2:53 AM,63.0,44.1,50,29.91,10.0,South,9.2,17.3,N/A,,Clear,190,2008-12-28 07:53:00
3:53 AM,64.0,44.1,48,29.88,10.0,South,9.2,23.0,N/A,,Clear,190,2008-12-28 08:53:00
4:53 AM,64.0,45.0,50,29.86,10.0,SSW,11.5,24.2,N/A,,Overcast,200,2008-12-28 09:53:00
5:53 AM,64.9,46.0,50,29.83,10.0,SSW,12.7,20.7,N/A,,Scattered Clouds,200,2008-12-28 10:53:00
6:53 AM,66.0,46.9,50,29.78,10.0,SSW,13.8,23.0,N/A,,Scattered Clouds,200,2008-12-28 11:53:00
7:53 AM,66.0,46.9,50,29.79,10.0,SSW,9.2,24.2,N/A,,Clear,210,2008-12-28 12:53:00
8:53 AM,66.9,48.9,52,29.81,10.0,SW,16.1,31.1,N/A,,Overcast,230,2008-12-28 13:53:00
9:46 AM,55.4,48.2,77,29.95,8.0,West,13.8,35.7,0.01,Rain,Light Rain,270,2008-12-28 14:46:00
9:53 AM,55.0,48.0,77,29.96,10.0,West,16.1,35.7,0.02,,Overcast,260,2008-12-28 14:53:00
10:10 AM,55.4,44.6,67,29.99,10.0,WSW,8.1,27.6,N/A,,Overcast,250,2008-12-28 15:10:00
10:53 AM,54.0,39.0,57,30.01,10.0,WSW,10.4,25.3,N/A,,Overcast,240,2008-12-28 15:53:00
11:53 AM,54.0,30.9,41,30.04,10.0,WSW,15.0,24.2,N/A,,Partly Cloudy,240,2008-12-28 16:53:00
12:53 PM,53.1,28.9,40,30.04,10.0,SW,16.1,28.8,N/A,,Clear,220,2008-12-28 17:53:00
1:53 PM,51.1,27.0,39,30.06,10.0,WSW,6.9,21.9,N/A,,Clear,250,2008-12-28 18:53:00
2:53 PM,51.1,26.1,38,30.08,10.0,SW,10.4,23.0,N/A,,Clear,230,2008-12-28 19:53:00
3:53 PM,50.0,25.0,38,30.10,10.0,West,9.2,-,N/A,,Clear,260,2008-12-28 20:53:00
4:53 PM,46.9,26.1,44,30.12,10.0,WSW,10.4,20.7,N/A,,Clear,240,2008-12-28 21:53:00
5:53 PM,46.0,26.1,46,30.14,10.0,West,4.6,-,N/A,,Clear,270,2008-12-28 22:53:00
6:53 PM,44.1,25.0,47,30.17,10.0,West,5.8,-,N/A,,Clear,270,2008-12-28 23:53:00
7:53 PM,42.1,27.0,55,30.17,10.0,SW,5.8,-,N/A,,Clear,230,2008-12-29 00:53:00
8:53 PM,41.0,28.0,60,30.16,10.0,SW,4.6,-,N/A,,Clear,230,2008-12-29 01:53:00
9:53 PM,39.9,27.0,60,30.17,10.0,Calm,Calm,-,N/A,,Clear,0,2008-12-29 02:53:00
10:53 PM,39.0,27.0,62,30.18,10.0,SW,3.5,-,N/A,,Clear,230,2008-12-29 03:53:00
11:53 PM,37.9,26.1,62,30.17,10.0,West,3.5,-,N/A,,Clear,270,2008-12-29 04:53:00